Regional Weather Roundup
Issued by NWS

Home | Current Version | Previous Version | Graphics & Text | Print | Product List | Glossary On
Versions: 1 2 3 4 5 6 7 8 9 10 11 12 13 14 15 16 17 18 19 20 21 22 23 24 25 26 27 28 29 30 31 32 33 34 35 36 37 38 39 40 41 42 43 44 45 46 47 48 49 50
272
ASUS43 KOAX 081210
RWRNE

WEATHER ROUNDUP FOR NEBRASKA
NATIONAL WEATHER SERVICE OMAHA NE
600 AM CST MON FEB 08 2016

NOTES: SATELLITE DATA IS BEING USED TO AUGMENT CLOUD COVER ABOVE
       12000 FEET.
       "FAIR" INDICATES FEW OR NO CLOUDS BELOW 12,000 FEET WITH NO
       SIGNIFICANT WEATHER AND/OR OBSTRUCTIONS TO VISIBILITY.

  * THESE STATIONS DO NOT REPORT WEATHER SUCH AS RAIN...SNOW OR FOG.

NEZ001>004-019>022-054>056-081300-
NEBRASKA PANHANDLE

CITY           SKY/WX    TMP DP  RH WIND       PRES   REMARKS
SCOTTSBLUFF    CLOUDY    21  10  62 W10       30.36S WCI  10
6HR MIN TEMP:  21; 6HR MAX TEMP:  26;

ALLIANCE       CLOUDY    23  10  57 NW20      30.31R WCI   8
6HR MIN TEMP:  18; 6HR MAX TEMP:  24;

CHADRON        CLOUDY    26  12  55 W17       30.36S WCI  13
6HR MIN TEMP:  24; 6HR MAX TEMP:  26;

KIMBALL        CLOUDY    25  12  58 NW10      30.34R WCI  14
SIDNEY         CLOUDY    19  10  68 NW14      30.32R WCI   6
6HR MIN TEMP:  19; 6HR MAX TEMP:  25;

$$

NEZ057>060-069>072-079>082-081300-
SOUTHWEST NEBRASKA

CITY           SKY/WX    TMP DP  RH WIND       PRES   REMARKS
NORTH PLATTE   CLEAR     21  11  65 W15       30.26R WCI   8
6HR MIN TEMP:  20; 6HR MAX TEMP:  30;

IMPERIAL       CLEAR     23  11  60 NW14      30.31R WCI  11
6HR MIN TEMP:  23; 6HR MAX TEMP:  27;

LEXINGTON      CLEAR     28  15  60 NW22G28   30.21R WCI  13
MCCOOK         CLEAR     25  13  60 NW18      30.28R WCI  11
6HR MIN TEMP:  23; 6HR MAX TEMP:  28;

OGALLALA       CLEAR     25  11  56 NW18      30.30R WCI  11
$$

NEZ005>010-023>029-035>040-094-081300-
NORTH CENTRAL NEBRASKA

CITY           SKY/WX    TMP DP  RH WIND       PRES   REMARKS
VALENTINE      CLEAR     25  15  66 NW23G35   30.25R WCI  10
6HR MIN TEMP:  25; 6HR MAX TEMP:  30;

AINSWORTH      CLEAR     26  16  66 NW31G43   30.22R WCI   9
BROKEN BOW     CLEAR     27  15  61 NW30G40   30.18R WCI  11
6HR MIN TEMP:  27; 6HR MAX TEMP:  33;

O`NEILL        PTCLDY    27  17  65 NW35G47   30.14R WCI  10
ORD            CLEAR     27  17  66 NW30G41   30.14R WCI  11
6HR MIN TEMP:  27; 6HR MAX TEMP:  33;

THEDFORD       CLEAR     28  17  64 NW29G35   30.24R WCI  12
$$

NEZ041-046>049-061>064-073>077-083>087-081300-
SOUTH CENTRAL NEBRASKA

CITY           SKY/WX    TMP DP  RH WIND       PRES   REMARKS
GRAND ISLAND   CLEAR     28  16  60 N26G38    30.13R WCI  13
6HR MIN TEMP:  28; 6HR MAX TEMP:  33;

AURORA         MOCLDY    28  18  66 N30G38    30.12R WCI  12
HASTINGS       CLEAR     27  16  63 NW22      30.13R WCI  13
6HR MIN TEMP:  27; 6HR MAX TEMP:  33;

HEBRON         PTCLDY    30  20  64 NW13G24   30.12R WCI  20
HOLDREGE       CLEAR     27  16  63 NW20G28   30.18R WCI  13
YORK           MOCLDY    28  19  69 N26G36    30.09R WCI  13
$$

NEZ011>018-030>034-042>045-081300-
NORTHEAST NEBRASKA

CITY           SKY/WX    TMP DP  RH WIND       PRES   REMARKS
NORFOLK        CLOUDY    28  17  63 NW31G48   30.06R WCI  12
6HR MIN TEMP:  28; 6HR MAX TEMP:  34; 6HR PCP: TRACE;

ALBION         CLOUDY    28  17  63 N23G40    30.10R WCI  14
BLAIR          FLURRIES  28  20  73 NW33G44   30.00S WCI  11
COLUMBUS *     CLOUDY    28  12  50 NW20G31   30.09R WCI  15
FREMONT        CLOUDY    28  20  70 NW22G33   30.05R WCI  14
TEKAMAH        CLOUDY    28  18  66 NW33G41   30.04R WCI  11
6HR MIN TEMP:  28; 6HR MAX TEMP:  33; 6HR PCP: TRACE;

WAYNE          CLOUDY    27  20  73 NW31G37   30.05R WCI  11
$$

NEZ050>053-065>068-078-088>093-081300-
SOUTHEAST NEBRASKA

CITY           SKY/WX    TMP DP  RH WIND       PRES   REMARKS
LINCOLN        CLOUDY    30  18  60 N36G45    30.08R WCI  14
6HR MIN TEMP:  30; 6HR MAX TEMP:  35; 6HR PCP: TRACE;

OMAHA EPPLEY   FLURRIES  28  20  71 NW25G36   30.01R WCI  13
6HR MIN TEMP:  28; 6HR MAX TEMP:  31; 6HR PCP: TRACE;

BEATRICE       CLOUDY    31  24  76 N22G30    30.08R WCI  18
FALLS CITY     CLOUDY    31  18  58 NW24G33   30.02R WCI  17
6HR MIN TEMP:  31; 6HR MAX TEMP:  36;

NEBRASKA CITY  CLOUDY    29  19  66 N23G31    30.02R WCI  16
PLATTSMOUTH    CLOUDY    28  21  72 NW29G37   30.01R WCI  13
$$

NEZ044-045-051>053-067-081300-
OMAHA AREA

CITY           SKY/WX    TMP DP  RH WIND       PRES   REMARKS
OMAHA EPPLEY   FLURRIES  28  20  71 NW25G36   30.01R WCI  13
6HR MIN TEMP:  28; 6HR MAX TEMP:  31; 6HR PCP: TRACE;

BLAIR          FLURRIES  28  20  73 NW33G44   30.00S WCI  11
FREMONT        CLOUDY    28  20  70 NW22G33   30.05R WCI  14
MILLARD        CLOUDY    30  20  66 NW14G24   30.03R WCI  19
OFFUTT AFB     FLURRIES  29  19  68 NW21G32   30.01R WCI  15
PLATTSMOUTH    CLOUDY    28  21  72 NW29G37   30.01R WCI  13
WAHOO          CLOUDY    30  19  65 NW24G36   30.04S WCI  16
$$




USA.gov is the U.S. government's official web portal to all federal, state and local government web resources and services.